Juliana Airport, Saint Maartin

3:10 PM AST on October 01, 2016 (GMT -0400)
Princess Juliana International

Weather History for TNCM - January, 2013

Change the Weather History Date:

Wednesday, January 23, 2013

  Actual Average Record
Temperature  
Mean Temperature 79 °F -  
Max Temperature 82 °F 82 °F 86 °F (1998)
Min Temperature 76 °F 72 °F 71 °F (2004)
Cooling Degree Days 14    
Growing Degree Days 29 (Base 50)    
Moisture  
Dew Point 70 °F    
Average Humidity 71    
Maximum Humidity 83    
Minimum Humidity 58    
Precipitation  
Precipitation 0.04 in - - ()
Sea Level Pressure  
Sea Level Pressure 30.07 in    
Wind  
Wind Speed 9 mph ()    
Max Wind Speed 15 mph    
Max Gust Speed 25 mph    
Visibility 7.9 miles    
Events Rain    
Averages and records for this station are not official NWS values.
T = Trace of Precipitation, MM = Missing Value Source: Averaged Metar Reports

Daily Weather History Graph

Daily Weather History Graph

Search for Another Location

Airport or City:

Trip Planner

Search our weather history database for the weather conditions in past years. The results will help you decide how hot, cold, wet, or windy it might be!

Date:

Astronomy

Jan. 23, 2013 Rise Set
Actual Time 6:46 AM AST 6:02 PM AST
Civil Twilight 6:23 AM AST 6:25 PM AST
Nautical Twilight 5:57 AM AST 6:51 PM AST
Astronomical Twilight 5:31 AM AST 7:17 PM AST
Moon 3:14 PM AST (1/23) 3:48 AM AST (1/23)
Length of Visible Light 12h 01m
Length of Day
11h 15m
Waxing Gibbous, 89% of the Moon is Illuminated
Jan 23
Waxing Gibbous
Jan 27
Full
Feb 3
Last Quarter
Feb 10
New
Feb 17
First Quarter

Hourly Weather History & Observations

Time (AST) Temp. Heat Index Dew Point Humidity Pressure Visibility Wind Dir Wind Speed Gust Speed Precip Events Conditions
12:00 AM 78.8 °F - 69.8 °F 74% 30.06 in 6.2 mi ESE 13.8 mph - N/A   Scattered Clouds
1:00 AM 78.8 °F - 69.8 °F 74% 30.06 in 6.2 mi ESE 9.2 mph - N/A   Partly Cloudy
2:00 AM 78 °F - 70 °F 70% 30.06 in 12 mi SE 8.1 mph - -   Scattered Clouds
2:00 AM 78.8 °F - 69.8 °F 74% 30.04 in 6.2 mi ESE 9.2 mph - N/A   Partly Cloudy
3:00 AM 78.8 °F - 69.8 °F 74% 30.04 in 6.2 mi ESE 11.5 mph - N/A   Scattered Clouds
4:00 AM 78.8 °F - 69.8 °F 74% 30.04 in 6.2 mi ESE 8.1 mph - N/A   Scattered Clouds
5:00 AM 78 °F - 71 °F 72% 30.06 in 12 mi East 9.2 mph - -   Partly Cloudy
5:00 AM 77.0 °F - 71.6 °F 83% 30.06 in 6.2 mi East 9.2 mph - N/A   Scattered Clouds
6:00 AM 78.8 °F - 69.8 °F 74% 30.06 in 6.2 mi ESE 5.8 mph - N/A   Scattered Clouds
7:00 AM - - - N/A% 30.09 in 5.6 mi ESE 5.8 mph - N/A Rain Light Rain Showers
8:00 AM 79 °F - 71 °F 72% 30.11 in 12 mi ESE 9.2 mph - - Rain Light Rain Showers
8:00 AM 78.8 °F - 71.6 °F 78% 30.09 in 6.2 mi ESE 9.2 mph - N/A   Partly Cloudy
9:00 AM 80.6 °F 84.6 °F 71.6 °F 74% 30.12 in 6.2 mi ESE 8.1 mph - N/A   Partly Cloudy
10:00 AM 77.0 °F - 69.8 °F 78% 30.12 in 6.2 mi SE 15.0 mph - N/A Rain Light Rain Showers
11:00 AM 80 °F - 71 °F 69% 30.13 in 12 mi ESE 8.1 mph - - Rain Light Rain Showers
11:00 AM 80.6 °F 84.6 °F 71.6 °F 74% 30.12 in 6.2 mi ESE 8.1 mph - N/A   Mostly Cloudy
12:00 PM 82.4 °F 87.2 °F 71.6 °F 70% 30.09 in 6.2 mi ESE 10.4 mph - N/A   Scattered Clouds
1:00 PM 82.4 °F 87.2 °F 71.6 °F 70% 30.06 in 6.2 mi ESE 12.7 mph - N/A   Scattered Clouds
2:00 PM 82 °F - 70 °F 58% 30.06 in 12 mi ESE 12.7 mph - -   Partly Cloudy
2:00 PM 82.4 °F 86.3 °F 69.8 °F 66% 30.06 in 6.2 mi ESE 12.7 mph 25.3 mph N/A   Scattered Clouds
3:00 PM 80.6 °F 83.2 °F 68.0 °F 65% 30.04 in 6.2 mi East 15.0 mph - N/A   Mostly Cloudy
4:00 PM 80.6 °F 83.9 °F 69.8 °F 70% 30.04 in 6.2 mi ESE 11.5 mph - N/A   Scattered Clouds
5:00 PM 80 °F - 69 °F 63% 30.06 in 12 mi East 11.5 mph - -   Scattered Clouds
5:00 PM 80.6 °F 83.9 °F 69.8 °F 70% 30.04 in 6.2 mi East 11.5 mph - N/A   Partly Cloudy
6:00 PM 78.8 °F - 68.0 °F 69% 30.04 in 6.2 mi ESE 12.7 mph - N/A   Partly Cloudy
7:00 PM 78.8 °F - 69.8 °F 74% 30.06 in 6.2 mi East 10.4 mph - N/A   Partly Cloudy
8:00 PM 78 °F - 69 °F 67% 30.09 in 12 mi East 12.7 mph - -   Scattered Clouds
8:00 PM 78.8 °F - 69.8 °F 74% 30.06 in 6.2 mi East 10.4 mph - N/A   Partly Cloudy
9:00 PM 78.8 °F - 69.8 °F 74% 30.09 in 6.2 mi East 11.5 mph - N/A   Scattered Clouds
10:00 PM 78.8 °F - 68.0 °F 69% 30.09 in 6.2 mi East 8.1 mph - N/A   Partly Cloudy
11:00 PM 78 °F - 67 °F 60% 30.11 in 19 mi East 11.5 mph - -   Scattered Clouds
11:00 PM 77.0 °F - 66.2 °F 69% 30.09 in 6.2 mi East 11.5 mph - N/A   Partly Cloudy